Location: Kosice
(0.0000°N, 21.2500°E)
Time: 19:07:10
(UTC+01:00)

Cosmos 2150 Rocket - Pass Details

Date: 24 January 2021
Orbit: 748 x 808 km, 74.0° (Epoch: 01 March)

Event Time Altitude Azimuth Distance (km) Brightness Sun altitude
Rises 18:17:10 0° 187° (S) 3,207 7.6 -7.1°
Reaches altitude 10° 18:19:33 10° 184° (S) 2,275 6.8 -7.6°
Maximum altitude 18:24:39 66° 102° (ESE) 816 4.0 -8.8°
Drops below altitude 10° 18:29:42 10° 20° (NNE) 2,255 6.1 -10.0°
Sets 18:32:04 0° 18° (NNE) 3,178 6.8 -10.6°
